Change the Weather History Date:

Saturday, February 9, 2013

  Actual Average Record
Temperature  
Mean Temperature 43 °F 31 °F  
Max Temperature 54 °F 41 °F 70 °F (1976)
Min Temperature 31 °F 21 °F -15 °F (1899)
Degree Days  
Heating Degree Days 22 34  
Month to date heating degree days 254 312  
Since 1 July heating degree days 3362 3616  
Cooling Degree Days 0 0  
Month to date cooling degree days 0 0  
Year to date cooling degree days 0 0  
Moisture  
Dew Point 35 °F    
Average Humidity 76    
Maximum Humidity 92    
Minimum Humidity 59    
Precipitation  
Precipitation 0.04 in 0.03 in 0.46 in (1965)
Month to date precipitation 0.04 0.23  
Year to date precipitation 0.73 0.81  
Snow  
Snow 0.00 in 0.20 in 8.00 in (2001)
Month to date snowfall 0.0 1.9  
Year to date snowfall 5.2 7.6  
Since 1 July snowfall 13.7 14.1  
Snow Depth 0.00 in    
Sea Level Pressure  
Sea Level Pressure 29.79 in    
Wind  
Wind Speed 18 mph (SSE)    
Max Wind Speed 30 mph    
Max Gust Speed 37 mph    
Visibility 5 miles    
Events Rain , Thunderstorm    
T = Trace of Precipitation, MM = Missing Value Source: NWS Daily Summary

Daily Weather History Graph

Daily Weather History Graph

Search for Another Location

Airport or City:

Trip Planner

Search our weather history database for the weather conditions in past years. The results will help you decide how hot, cold, wet, or windy it might be!

Date:

Astronomy

Feb. 09, 2013 Rise Set
Actual Time 7:29 AM CST 6:00 PM CST
Civil Twilight 7:01 AM CST 6:28 PM CST
Nautical Twilight 6:30 AM CST 7:00 PM CST
Astronomical Twilight 5:58 AM CST 7:31 PM CST
Moon 6:42 AM CST (2/9) 5:44 PM CST (2/9)
Length of Visible Light 11h 26m
Length of Day
10h 30m
Waning Crescent, 0% of the Moon is Illuminated
Feb 9
Waning Crescent
Feb 10
New
Feb 17
First Quarter
Feb 25
Full
Mar 4
Last Quarter

Hourly Weather History & Observations

Time (CST) Temp. Windchill Dew Point Humidity Pressure Visibility Wind Dir Wind Speed Gust Speed Precip Events Conditions
12:55 AM 33.1 °F 25.5 °F 28.9 °F 85% 30.12 in 4.0 mi SE 9.2 mph - N/A   Clear
1:55 AM 33.1 °F 23.4 °F 30.0 °F 89% 30.09 in 4.0 mi SE 13.8 mph - N/A   Clear
2:55 AM 32.0 °F 21.6 °F 28.9 °F 88% 30.07 in 3.0 mi SE 15.0 mph - N/A   Clear
3:55 AM 32.0 °F 22.1 °F 28.9 °F 88% 30.04 in 4.0 mi SE 13.8 mph - N/A   Clear
4:55 AM 33.1 °F 22.6 °F 28.9 °F 85% 30.02 in 5.0 mi SE 16.1 mph - N/A   Clear
5:55 AM 30.9 °F 21.7 °F 28.9 °F 92% 30.02 in 4.0 mi SE 11.5 mph - N/A   Clear
6:55 AM 32.0 °F 23.0 °F 28.9 °F 88% 30.02 in 5.0 mi SE 11.5 mph - N/A   Clear
7:55 AM 33.1 °F 21.9 °F 28.9 °F 85% 30.02 in 4.0 mi SSE 18.4 mph - N/A   Clear
8:55 AM 37.0 °F 27.4 °F 32.0 °F 82% 29.99 in 5.0 mi SSE 17.3 mph - N/A   Haze
9:55 AM 37.9 °F 27.6 °F 32.0 °F 79% 29.97 in 6.0 mi SSE 20.7 mph 28.8 mph N/A   Haze
10:55 AM 44.1 °F 35.4 °F 34.0 °F 68% 29.96 in 8.0 mi SSE 21.9 mph 28.8 mph N/A   Clear
11:55 AM 50.0 °F - 37.0 °F 61% 29.91 in 8.0 mi South 20.7 mph 27.6 mph N/A   Clear
12:55 PM 52.0 °F - 39.0 °F 61% 29.84 in 8.0 mi SSE 23.0 mph 33.4 mph N/A   Clear
1:55 PM 51.1 °F - 37.9 °F 61% 29.81 in 8.0 mi South 21.9 mph 29.9 mph N/A   Partly Cloudy
2:55 PM 51.1 °F - 39.0 °F 63% 29.78 in 8.0 mi SSE 26.5 mph 34.5 mph N/A   Scattered Clouds
3:55 PM 48.0 °F - 39.0 °F 71% 29.75 in 9.0 mi SSE 20.7 mph - 0.00 in   Overcast
4:55 PM 46.9 °F - 37.0 °F 68% 29.73 in 9.0 mi SSE 24.2 mph 36.8 mph N/A   Overcast
5:55 PM 45.0 °F 36.6 °F 35.1 °F 68% 29.72 in 8.0 mi SSE 21.9 mph 33.4 mph N/A   Overcast
6:55 PM 43.0 °F 34.8 °F 34.0 °F 71% 29.71 in 9.0 mi SSE 18.4 mph - N/A   Overcast
7:33 PM 42.8 °F 34.0 °F 35.6 °F 76% 29.68 in 4.0 mi SSE 20.7 mph 31.1 mph N/A   Haze
7:55 PM 41.0 °F 32.5 °F 36.0 °F 82% 29.69 in 4.0 mi SSE 17.3 mph 26.5 mph N/A   Haze
8:12 PM 39.2 °F 29.8 °F 35.6 °F 87% 29.66 in 5.0 mi SSE 18.4 mph 26.5 mph N/A   Overcast
8:55 PM 39.9 °F 30.5 °F 36.0 °F 86% 29.68 in 5.0 mi SSE 19.6 mph 26.5 mph N/A   Overcast
9:14 PM 39.2 °F 28.3 °F 37.4 °F 93% 29.64 in 4.0 mi SSE 25.3 mph 31.1 mph N/A   Overcast
9:48 PM 39.2 °F 29.0 °F 37.4 °F 93% 29.61 in 4.0 mi SSE 21.9 mph 33.4 mph N/A   Overcast
9:55 PM 39.9 °F 30.2 °F 37.0 °F 89% 29.64 in 3.0 mi SSE 20.7 mph 33.4 mph 0.00 in Rain Light Rain
10:39 PM 39.2 °F 30.2 °F 37.4 °F 93% 29.62 in 2.0 mi SSE 17.3 mph - 0.00 in Rain Light Rain
10:42 PM 39.2 °F 30.5 °F 37.4 °F 93% 29.62 in 1.8 mi SSE 16.1 mph 23.0 mph 0.00 in Rain , Thunderstorm Light Thunderstorms and Rain
10:55 PM 39.0 °F 31.0 °F 37.9 °F 96% 29.63 in 1.5 mi SSE 13.8 mph 21.9 mph 0.03 in Rain Light Rain
11:05 PM 39.2 °F 31.2 °F 37.4 °F 93% 29.61 in 1.2 mi SSE 13.8 mph - N/A Rain Light Rain
11:18 PM 39.2 °F 31.6 °F 37.4 °F 93% 29.61 in 1.2 mi SSE 12.7 mph - 0.01 in Rain Light Rain
11:27 PM 39.2 °F 30.5 °F 37.4 °F 93% 29.60 in 1.5 mi SSE 16.1 mph - 0.01 in   Overcast
11:42 PM 39.2 °F 30.2 °F 37.4 °F 93% 29.59 in 1.8 mi SSE 17.3 mph - 0.01 in   Overcast
11:50 PM 39.2 °F 29.8 °F 37.4 °F 93% 29.58 in 2.0 mi SSE 18.4 mph 27.6 mph 0.01 in   Overcast
11:55 PM 39.9 °F 31.1 °F 37.9 °F 93% 29.57 in 2.0 mi SE 17.3 mph 27.6 mph 0.01 in   Overcast